Weather History for Pope Field Airport, NC

Change the Weather History Date:

Saturday, February 8, 2014

  Actual Average Record
Temperature  
Mean Temperature 42 °F -  
Max Temperature 52 °F 52 °F 74 °F (2009)
Min Temperature 31 °F 31 °F 19 °F (1984)
Degree Days  
Heating Degree Days 23    
Moisture  
Dew Point 31 °F    
Average Humidity 75    
Maximum Humidity 93    
Minimum Humidity 42    
Precipitation  
Precipitation 0.00 in - - ()
Sea Level Pressure  
Sea Level Pressure 30.22 in    
Wind  
Wind Speed 2 mph (NE)    
Max Wind Speed 8 mph    
Max Gust Speed -    
Visibility 10 miles    
Events      
Averages and records for this station are not official NWS values.
T = Trace of Precipitation, MM = Missing Value Source: NWS Daily Summary

Daily Weather History Graph

Daily Weather History Graph

Search for Another Location

Airport:

Trip Planner

Search our weather history database for the weather conditions in past years. The results will help you decide how hot, cold, wet, or windy it might be!

Date:

Astronomy

Feb. 08, 2014 Rise Set
Actual Time 7:09 AM EST 5:51 PM EST
Civil Twilight 6:42 AM EST 6:17 PM EST
Nautical Twilight 6:12 AM EST 6:47 PM EST
Astronomical Twilight 5:43 AM EST 7:17 PM EST
Moon 12:47 PM EST (2/8) 2:17 AM EST (2/8)
Length of Visible Light 11h 35m
Length of Day
10h 42m
Waxing Gibbous, 68% of the Moon is Illuminated
Feb 8
Waxing Gibbous
Feb 14
Full
Feb 22
Last Quarter
Mar 1
New
Mar 8
First Quarter

Hourly Weather History & Observations

Time (EST) Temp. Windchill Dew Point Humidity Pressure Visibility Wind Dir Wind Speed Gust Speed Precip Events Conditions
12:58 AM 33.4 °F - 30.6 °F 89% 30.29 in 10.0 mi Calm Calm - N/A   Partly Cloudy
1:58 AM 32.2 °F - 30.4 °F 93% 30.27 in 10.0 mi East 2.3 mph - N/A   Partly Cloudy
2:58 AM 33.1 °F - 30.6 °F 90% 30.27 in 10.0 mi NNE 1.2 mph - N/A   Partly Cloudy
3:58 AM 33.8 °F - 30.7 °F 89% 30.25 in 10.0 mi North 2.3 mph - N/A   Partly Cloudy
4:58 AM 34.3 °F - 31.1 °F 88% 30.27 in 10.0 mi SW 2.3 mph - N/A   Mostly Cloudy
5:58 AM 34.3 °F - 31.8 °F 90% 30.25 in 10.0 mi Calm Calm - N/A   Overcast
6:58 AM 34.3 °F - 32.4 °F 92% 30.26 in 10.0 mi Calm Calm - N/A   Clear
7:58 AM 36.3 °F - 32.0 °F 84% 30.27 in 10.0 mi East 2.3 mph - N/A   Clear
8:58 AM 37.6 °F 33.1 °F 32.7 °F 83% 30.26 in 10.0 mi NNE 5.8 mph - N/A   Partly Cloudy
9:58 AM 40.1 °F 38.0 °F 32.2 °F 73% 30.28 in 10.0 mi NE 3.5 mph - N/A   Clear
10:58 AM 42.6 °F 39.0 °F 30.9 °F 63% 30.29 in 10.0 mi NE 5.8 mph - N/A   Partly Cloudy
11:58 AM 44.2 °F 41.8 °F 31.3 °F 60% 30.24 in 10.0 mi ENE 4.6 mph - N/A   Scattered Clouds
12:58 PM 47.1 °F - 30.7 °F 53% 30.22 in 10.0 mi Variable 2.3 mph - N/A   Clear
1:58 PM 50.5 °F - 30.0 °F 45% 30.17 in 10.0 mi Variable 3.5 mph - N/A   Clear
2:58 PM 51.6 °F - 29.8 °F 43% 30.14 in 10.0 mi ENE 8.1 mph - N/A   Clear
3:58 PM 52.3 °F - 29.8 °F 42% 30.14 in 10.0 mi NNE 2.3 mph - N/A   Clear
4:58 PM 51.6 °F - 30.2 °F 44% 30.14 in 10.0 mi NE 5.8 mph - N/A   Clear
5:58 PM 46.0 °F - 30.7 °F 55% 30.14 in 10.0 mi East 2.3 mph - N/A   Clear
6:58 PM 39.4 °F - 32.4 °F 76% 30.16 in 10.0 mi ENE 1.2 mph - N/A   Clear
7:58 PM 37.9 °F - 32.7 °F 81% 30.18 in 10.0 mi Calm Calm - N/A   Clear
8:58 PM 35.4 °F - 32.5 °F 89% 30.19 in 10.0 mi ENE 2.3 mph - N/A   Clear
9:58 PM 32.7 °F - 30.6 °F 92% 30.19 in 10.0 mi NNE 2.3 mph - N/A   Clear
10:58 PM 32.5 °F - 30.0 °F 90% 30.19 in 10.0 mi Calm Calm - N/A   Clear
11:58 PM 31.8 °F - 29.7 °F 92% 30.19 in 10.0 mi NNE 1.2 mph - N/A   Clear